Regional Weather Roundup
Issued by NWS Charleston, SC

Current Version | Previous Version | Graphics & Text | Print | Product List | Glossary On
Versions: 1 2 3 4 5 6 7 8 9 10 11 12 13 14 15 16 17 18 19 20 21 22 23 24 25 26 27 28 29 30 31 32 33 34 35 36 37 38 39 40 41 42 43 44 45 46 47 48 49 50
000
ASUS42 KCHS 211227
RWRCHS

REGIONAL WEATHER ROUNDUP
NATIONAL WEATHER SERVICE CHARLESTON SC
800 AM EDT MON AUG 21 2017

NOTE: "FAIR" INDICATES FEW OR NO CLOUDS BELOW 12,000 FEET WITH NO
SIGNIFICANT WEATHER AND/OR OBSTRUCTIONS TO VISIBILITY.

NOT ALL STATIONS ARE QUALITY CONTROLLED. USE DATA WITH CAUTION...
ESPECIALLY DEWPOINT OBSERVATIONS.

SCZ027-030-031-034>040-042>050-211300-
...SOUTHEAST SOUTH CAROLINA...

CITY           SKY/WX    TMP DP  RH WIND       PRES   REMARKS
N CHARLESTON   CLOUDY    80  79  96 CALM      30.17R
6HR MIN TEMP:  77; 6HR MAX TEMP:  80;

WATERFRONT PRK   N/A     82  80  94 NE6       30.00R HX  94
JOHNS ISLAND   FAIR      82  81  94 CALM      30.17S HX  95
PINOPOLIS        N/A     81  81 100 NE6       30.11R HX  91
MONCKS CORNER  FAIR      79  77  94 NE3       30.18S
SUMMERVILLE    FAIR      77  77 100 CALM      30.18S
BEAUFORT MCAS  CLOUDY    81  81 100 NE3       30.17R HX  92
6HR MIN TEMP:  78; 6HR MAX TEMP:  82;

BEAUFORT ARPT  FAIR      81  79  94 N5        30.16S
HILTON HEAD IS PTSUNNY   81  77  89 N6        30.17
WALTERBORO     SUNNY     77  77 100 CALM      30.18F
ALLENDALE      NOT AVBL

...SOUTHERN MIDLANDS AND PEE DEE...

CITY           SKY/WX    TMP DP  RH WIND       PRES   REMARKS
GEORGETOWN     FAIR      77  77 100 CALM      30.19S
KINGSTREE      FAIR      77  75  94 CALM      30.19R FOG
ORANGEBURG     SUNNY     77  74  90 E3        30.18S
6HR MIN TEMP:  73; 6HR MAX TEMP:  78;

BARNWELL       FOG       77  77 100 CALM      30.19R VSB<1/4
AIKEN          FOG       72  72 100 NE3       30.23R VSB 1/4
MANNING        FAIR      77  77 100 NE10G22   30.19R FOG
COLUMBIA       MOSUNNY   79  74  84 CALM      30.18R HAZE
6HR MIN TEMP:  76; 6HR MAX TEMP:  81;

SUMTER         PTSUNNY   75  74  96 CALM      30.17R FOG
6HR MIN TEMP:  73; 6HR MAX TEMP:  78;

FLORENCE       MOSUNNY   77  76  96 CALM      30.19S
6HR MIN TEMP:  74; 6HR MAX TEMP:  78;

MYRTLE BEACH   MOSUNNY   79  77  94 N7        30.19R
N MYRTLE BEACH PTSUNNY   78  78 100 N3        30.18S
6HR MIN TEMP:  77; 6HR MAX TEMP:  79; 6HR PCP:  0.14;


$$

GAZ063-065-086>088-099>101-113>116-118-119-134>141-150-211300-
...SOUTHEAST GEORGIA...

CITY           SKY/WX    TMP DP  RH WIND       PRES   REMARKS
SAVANNAH ARPT  PTSUNNY   80  78  94 N5        30.17R
6HR MIN TEMP:  77; 6HR MAX TEMP:  81;

HUNTER AAF     MOSUNNY   80  77  92 NE5       30.14R
6HR MIN TEMP:  77; 6HR MAX TEMP:  81; 6HR PCP: TRACE;

FORT STEWART   PTSUNNY   77  76  95 CALM      30.14R
6HR MIN TEMP:  75; 6HR MAX TEMP:  77;

STATESBORO     MOSUNNY   79  79  99 CALM      30.17S
SYLVANIA         N/A     77  77 100 CALM      30.18S
CLAXTON        FAIR      78  76  95 CALM      30.16F

...CSRA...CENTRAL AND FAR SOUTHEAST GEORGIA...

CITY           SKY/WX    TMP DP  RH WIND       PRES   REMARKS
THOMSON        MOSUNNY   76  74  93 S3        30.24R
AUGUSTA-BUSH   FOG       77  76  96 CALM      30.16S VSB<1/4
6HR MIN TEMP:  74; 6HR MAX TEMP:  78;

AUGUSTA-DANIEL MOSUNNY   79  75  87 CALM      30.18S FOG
SWAINSBORO     FAIR      77  77 100 E3        30.18R
VIDALIA        SUNNY     79  77  94 CALM      30.17R
EASTMAN        FAIR      76  74  91 CALM      30.18S
HAZLEHURST     FAIR      78  74  85 CALM      30.14F
ALMA           SUNNY     74  72  93 E3        30.15R FOG
6HR MIN TEMP:  71; 6HR MAX TEMP:  74;

WAYCROSS       CLOUDY    74  71  89 E3        30.16R FOG
JESUP          FOG       79  75  89 CALM      30.16S VSB 1/2
BAXLEY         FAIR      73  73 100 E3        30.15F
BRUNSWICK      CLOUDY    79  75  89 NE5       30.16R
SAINT SIMONS   CLOUDY    81  79  94 N6        30.14R HX  90
6HR MIN TEMP:  80; 6HR MAX TEMP:  83; 6HR PCP: TRACE;


$$

SCZ027-028-034-036>038-045-046-048>050-GAZ119-141-211300-
...LAKE AND SUPPLEMENTAL COASTAL OBSERVATIONS...

STATION/POSITION TIME  TEMP    WIND        PRES    WAVE   SWELL
                       AIR SEA DIR/SP/G            HT/PER HT/PER/DIR
                 (UTC) (F)     (DEG/KT/KT) (MB)    (FT/S) (FT/S/D)
WINYAH BAY       1145   79     350/  2     1022.0R
LAKE MURRAY      1120   81      CALM  /  1 1021.3R
ACE BASIN NERRS  1145   79        CALM     1022.0R
FORT PULASKI     1200   78 87  180/  2/  2 1021.6
SAPELO ISLAND    1200   81        CALM     1021.0

$$

ANZ835-935-AMZ111-154-330-350-352-354-370-450-454-472-211300-
...C-MAN AND BUOY OBSERVATIONS...

STATION/POSITION TIME  TEMP    WIND        PRES    WAVE   SWELL
                       AIR SEA DIR/SP/G            HT/PER HT/PER/DIR
                 (UTC) (F)     (DEG/KT/KT) (MB)    (FT/S) (FT/S/D)
BUOY 41004       1210   82 85  110/  4/  6 1021.1
BUOY 41008       1150   83 85   80/  4/  6 1020.5R   2/ 8   2/110/ 8
FOLLY BEACH CMAN 1200   83      30/  8/  8 1022.3R
CAPERS NEARSHORE 1208   82 86   10/  6/  8 1021.5R
FRIPP NEARSHORE  1208   84      10/  2/  6 1020.9R


STATION/POSITION TIME  TEMP    WIND        PRES    WAVE   SWELL
                       AIR SEA DIR/SP/G            HT/PER HT/PER/DIR
                 (UTC) (F)     (DEG/KT/KT) (MB)    (FT/S) (FT/S/D)
5E ST. MARYS GA  1200      84                N/A     2/ 7
FRYING PAN BUOY  1210   83 84  120/  2/  4 1021.7
BUOY 41025       1150   83 85   40/  8/ 10 1022.3R   2/ 8   2/110/ 8
CAPE LOOKOUT NC  1200   82      50/  7/  8 1022.3R
BUOY 41002       1150   83 84  160/  4/  6 1022.4R   3/ 9   3/100/ 9
BUOY 41010       1210   84 85  110/ 10/ 12 1020.2
ST AUGUSTINE FL  1200   82 81   70/  6/  7 1020.4R


$$




USA.gov is the U.S. government's official web portal to all federal, state and local government web resources and services.